Location: Maiden
(35.5760°N, 81.2120°W)
Time: 20:17:48
(UTC-04:00)

Cosmos 1766 - Pass Details

Date: 14 June 2018
Orbit: 524 x 545 km, 82.5° (Epoch: 19 October)

Event Time Altitude Azimuth Distance (km) Brightness Sun altitude
Rises 21:27:51 0° 350° (N) 2,714 7.7 -8.7°
Reaches altitude 10° 21:30:01 10° 348° (NNW) 1,816 6.8 -9.0°
Maximum altitude 21:33:59 68° 265° (W) 588 3.6 -9.7°
Drops below altitude 10° 21:37:54 10° 183° (S) 1,794 5.6 -10.3°
Enters shadow 21:39:30 - 181° (S) 2,452 6.3 -10.5°
